Wind_Speed
53 51 50 50 52 53 52 53 54 56 56 58 62 65 67 69 72 77 81 85 89 93 97 102 109 116 124 133 142 149 154 157 159 159 158 157 157 158 158 156 156 158 159 161 164 167 169 169 169 168 167 166 164 162 160 158 156 156 155 155 153 152 150 148 146 144 143 143 144 141 136 132 129 126
54 50 49 49 50 51 51 52 54 56 57 57 60 62 65 67 70 75 79 84 87 91 95 99 104 111 118 126 135 143 151 156 159 160 160 158 157 159 159 158 156 157 159 161 163 166 169 170 170 170 169 167 166 164 163 162 160 159 158 157 157 155 153 152 150 148 147 146 147 147 146 142 138 133
54 50 49 48 48 50 51 51 52 56 58 57 58 61 63 66 69 73 77 81 86 89 93 97 101 107 113 120 128 136 145 153 157 160 161 160 159 158 160 159 158 158 159 162 164 166 168 170 171 172 171 169 167 167 166 165 164 163 162 160 159 157 156 155 154 151 150 149 149 150 150 149 148 145
54 50 49 48 48 48 50 50 51 54 58 58 57 59 61 65 68 72 75 79 84 87 91 95 99 104 109 114 121 129 138 146 153 158 160 161 160 159 159 160 160 159 159 161 164 166 168 170 172 173 172 171 169 169 169 168 168 166 165 163 161 160 158 157 156 154 153 152 152 152 152 152 152 151
54 50 49 48 48 47 48 50 50 52 56 58 57 57 59 62 66 70 73 77 82 85 88 93 97 101 105 110 116 122 129 137 146 154 158 161 161 161 160 160 161 161 161 161 164 166 168 170 172 174 174 173 172 171 171 171 170 169 167 166 164 162 160 158 157 157 156 155 155 154 153 153 153 153
54 50 49 48 47 46 47 49 50 51 53 57 57 56 57 60 63 67 71 75 79 83 86 90 94 98 103 107 111 116 122 129 136 145 154 159 161 162 161 161 162 163 163 163 164 166 168 169 172 174 175 176 175 173 173 173 172 171 169 168 167 165 162 160 159 158 158 158 157 156 155 154 154 154
53 50 49 48 46 46 46 48 50 50 51 54 56 56 56 58 61 64 69 73 78 82 84 87 91 95 100 104 108 112 117 122 128 136 145 153 159 162 162 162 162 164 165 165 165 166 168 169 171 174 176 177 177 176 175 175 174 172 171 170 168 167 165 163 161 160 159 159 158 158 157 156 156 155
54 50 49 48 46 45 45 47 48 49 49 52 54 55 55 57 59 62 66 71 76 80 83 85 88 92 96 101 105 109 112 117 122 127 135 143 151 158 161 162 163 164 166 167 167 167 168 170 171 173 176 178 179 179 178 177 176 174 173 172 170 168 166 165 164 163 162 161 159 159 159 158 158 157
54 50 49 48 46 44 44 45 47 49 49 50 52 53 55 56 57 59 62 67 73 78 81 84 87 90 93 97 101 106 109 113 117 122 127 134 142 149 156 160 163 164 166 167 169 169 169 170 172 173 175 177 179 180 180 179 178 177 175 174 172 170 168 167 166 165 165 164 162 161 160 160 159 158
54 50 49 48 46 44 44 44 46 47 48 49 50 51 53 55 56 57 59 63 69 75 79 83 85 88 91 94 97 102 106 110 113 117 122 127 133 140 147 154 159 163 166 167 169 170 170 171 172 173 175 177 178 180 181 181 181 179 178 176 174 172 170 168 167 167 166 166 166 165 163 162 162 161
54 50 48 48 47 45 44 44 45 46 47 48 48 50 51 53 54 56 58 61 65 70 76 80 84 86 89 91 94 98 102 106 110 114 117 122 127 132 138 144 151 158 164 167 169 171 172 172 172 173 175 176 178 179 181 182 182 182 180 179 177 175 172 171 170 169 167 167 167 167 166 165 164 164
54 50 48 48 47 45 44 44 44 45 46 47 47 48 49 51 53 54 57 59 61 66 71 77 81 84 87 90 92 95 98 102 106 111 114 117 121 126 130 135 141 148 157 164 168 170 172 173 173 174 175 176 178 179 180 181 182 183 182 181 179 177 175 174 172 171 170 168 167 167 166 166 165 165
54 50 48 48 47 45 44 44 43 43 44 46 46 47 48 49 51 52 55 57 59 62 66 72 77 81 85 88 91 93 95 98 102 107 110 113 116 120 124 129 133 139 148 158 166 170 172 174 175 175 175 176 178 179 179 180 181 182 183 182 181 180 178 177 176 175 173 171 169 168 167 167 166 165
54 50 48 47 47 45 44 43 42 42 43 45 46 46 47 48 49 50 52 55 57 60 62 67 72 77 81 85 89 91 94 96 98 102 106 110 114 116 119 123 128 133 139 149 159 167 172 174 175 176 176 176 178 179 179 180 180 181 182 182 182 181 180 180 179 178 176 175 173 170 169 168 167 166
53 50 47 47 47 45 44 43 42 41 42 44 45 45 46 46 47 48 50 52 55 58 60 63 67 72 77 82 86 89 92 94 96 99 102 107 111 113 116 120 125 129 134 141 151 160 168 173 175 177 177 177 177 178 179 180 180 180 181 182 182 182 182 181 181 180 179 178 176 174 172 170 169 168
53 50 47 47 46 45 44 43 42 41 41 43 44 45 45 45 46 47 48 49 52 55 58 60 63 67 72 78 83 87 89 91 94 96 99 103 108 111 113 117 123 127 131 136 142 151 161 168 173 175 177 178 178 178 178 179 180 180 180 181 182 182 183 183 182 182 181 181 179 178 176 173 172 171
52 49 47 47 46 44 43 43 42 41 41 41 43 44 44 44 44 45 46 47 49 52 55 58 60 62 67 72 78 83 86 88 91 93 96 100 104 107 111 115 121 125 128 131 135 142 151 160 168 173 175 177 178 178 178 178 179 180 181 181 182 182 183 183 183 183 183 182 182 181 179 177 175 174
51 49 47 46 46 44 43 42 42 41 40 40 41 43 43 43 44 44 44 46 48 49 52 55 57 60 63 68 73 78 82 85 88 91 94 97 100 103 107 112 117 121 124 126 129 134 141 151 160 168 173 176 178 179 179 179 179 180 181 181 182 182 183 183 184 184 184 184 183 183 181 180 179 177
50 48 46 46 46 44 43 42 42 41 40 39 40 41 42 43 43 43 43 44 46 47 49 51 55 58 60 63 67 72 77 82 85 88 91 94 97 100 104 108 112 116 120 123 125 128 134 142 151 161 169 175 177 179 180 181 180 180 181 182 182 183 183 183 184 185 185 185 185 184 183 182 181 180
49 47 46 45 45 44 43 42 41 41 40 38 39 39 40 41 42 43 43 43 44 46 47 49 52 55 58 60 63 67 72 77 81 85 88 91 94 98 101 104 108 112 116 119 122 125 129 135 142 151 162 171 176 178 180 181 182 181 181 182 183 183 183 184 184 185 185 186 186 186 185 184 183 182
48 47 45 45 45 44 43 41 41 41 40 38 37 38 39 40 41 43 43 42 43 44 45 47 49 52 55 57 60 62 66 71 76 81 85 88 91 94 98 101 104 107 111 115 119 122 126 130 134 142 152 162 171 176 179 181 182 182 182 182 182 183 183 184 184 184 185 186 186 187 187 186 185 185
48 46 45 44 44 44 42 41 41 41 40 39 37 37 37 38 40 42 42 42 42 43 44 45 47 49 52 55 57 59 62 66 71 76 81 85 88 92 95 98 100 103 106 110 115 119 123 127 130 134 142 152 162 171 177 180 182 183 183 183 182 182 183 183 183 184 184 185 185 186 186 187 187 187
47 46 44 43 43 43 42 40 40 40 40 39 37 36 36 37 38 41 42 41 42 42 42 43 45 46 49 52 55 56 58 62 66 71 76 80 84 88 92 95 97 99 102 106 111 116 121 125 128 131 136 142 151 161 171 177 180 182 183 183 183 183 182 183 183 183 183 184 184 185 185 186 186 187
46 45 44 43 43 43 42 40 39 39 39 39 37 36 35 35 37 39 41 41 41 41 41 42 43 44 47 50 52 54 56 59 62 66 71 76 80 84 88 91 94 97 99 102 106 112 117 122 126 128 132 136 142 150 160 169 176 181 182 182 183 183 183 183 183 183 183 183 183 183 184 184 185 185
45 45 44 43 43 42 42 40 39 39 39 38 37 36 35 34 35 38 40 40 40 41 41 41 41 43 44 47 50 52 53 56 59 62 66 70 75 79 84 87 91 94 97 99 102 107 113 118 121 124 127 131 135 141 148 157 166 175 180 182 183 183 183 183 183 183 182 182 182 182 182 182 183 183
44 44 44 43 42 42 42 40 39 38 38 38 37 36 35 34 34 37 39 39 39 40 41 40 40 41 43 45 47 50 51 53 56 59 62 65 70 74 79 83 87 90 94 97 101 104 109 113 116 119 123 127 131 135 140 145 153 163 172 178 181 183 183 183 183 183 183 182 182 182 182 182 182 181
43 43 43 42 42 42 41 40 39 38 38 37 37 37 35 34 33 35 37 38 38 39 40 40 40 40 41 43 45 47 49 51 54 56 59 62 65 69 73 78 83 87 90 94 98 101 105 109 112 116 120 123 127 131 135 138 144 151 160 169 176 180 182 183 183 183 183 182 183 183 182 182 182 181
42 42 42 42 42 42 41 40 39 38 37 37 36 36 36 34 33 33 36 37 37 38 39 40 40 40 41 42 43 45 47 50 52 54 56 59 62 65 68 72 77 82 87 91 94 98 102 105 109 112 116 120 124 128 131 134 138 144 150 158 166 173 179 182 183 183 182 182 182 182 182 182 182 181
41 41 41 41 41 41 40 40 38 38 37 36 36 36 36 35 33 33 34 36 37 37 38 39 40 40 41 41 42 43 45 48 50 52 54 57 59 62 65 68 71 76 81 87 91 95 98 102 105 108 112 116 120 124 128 131 135 139 143 149 155 163 170 176 180 181 182 182 181 181 181 181 181 181
41 40 41 41 41 40 40 39 38 37 37 36 35 35 35 35 34 33 33 34 36 36 37 38 39 40 41 41 42 42 43 45 48 50 52 54 57 59 62 65 68 71 75 80 86 91 95 98 101 104 108 111 115 119 124 128 131 135 139 143 148 154 160 167 173 177 179 180 181 181 181 181 181 181
40 39 41 41 40 40 39 39 38 37 36 35 35 35 35 35 35 34 33 33 34 35 36 37 38 40 41 41 42 42 42 43 45 48 51 53 55 57 60 62 65 68 70 74 79 84 89 94 97 100 103 106 110 114 118 122 126 130 133 137 142 146 151 157 164 170 174 177 179 180 180 180 181 181
38 39 41 41 40 39 39 38 37 37 36 35 34 34 34 35 35 34 33 33 33 34 35 36 37 38 39 40 41 42 42 42 43 46 48 51 53 55 58 60 62 64 67 70 74 78 82 87 92 96 99 102 104 107 111 115 119 123 127 131 135 140 144 148 153 159 166 170 174 176 178 179 180 180
37 40 42 41 39 39 39 38 37 36 35 35 34 34 34 34 34 34 34 33 33 33 34 35 36 37 38 39 40 42 42 42 43 44 46 48 51 53 56 58 59 61 64 67 70 73 76 80 84 89 93 97 100 102 105 108 112 116 120 124 128 132 137 141 146 150 156 161 166 171 174 176 178 179
38 41 41 39 39 39 39 38 37 35 35 34 34 34 34 34 34 34 34 33 33 33 33 34 35 36 37 38 39 41 42 42 43 43 44 46 48 51 54 56 58 59 61 64 66 69 72 75 78 82 86 90 94 98 101 104 107 110 113 117 121 125 129 133 138 143 147 152 157 162 167 170 173 175
39 40 39 38 38 39 39 38 37 35 34 33 33 33 33 33 33 33 33 33 33 33 33 33 34 35 36 37 38 39 41 42 43 43 44 45 46 48 51 53 55 57 59 61 63 66 68 71 74 76 79 83 87 91 95 99 102 105 108 110 114 118 122 126 130 135 139 144 149 153 158 162 166 169
39 38 37 37 38 39 39 39 37 35 34 33 32 33 33 33 32 32 32 32 32 32 32 33 34 35 35 36 37 38 39 40 42 43 44 45 46 47 48 50 52 54 56 58 60 63 65 68 70 72 75 78 81 84 89 93 96 100 102 105 108 111 114 118 122 126 131 135 139 144 148 153 157 161
38 36 35 36 38 39 39 38 37 35 34 32 32 32 32 32 32 32 32 32 32 32 32 32 33 34 35 36 37 37 38 39 40 42 43 44 46 47 47 49 50 51 53 55 57 60 63 65 67 70 72 74 76 80 84 87 90 93 95 98 101 105 108 111 115 119 122 126 130 134 139 143 147 152
36 34 34 36 38 39 39 37 36 36 34 32 32 32 32 32 32 31 31 31 31 31 32 32 32 34 35 36 37 37 37 38 39 40 41 43 45 46 47 48 49 50 50 52 54 57 60 62 64 67 70 71 73 76 80 82 84 87 89 91 94 97 100 104 108 112 115 119 122 125 129 133 137 141
33 32 33 36 39 39 38 36 36 36 34 33 32 31 31 31 31 31 30 30 30 30 31 31 32 33 34 36 37 37 37 38 38 39 40 41 43 44 45 46 47 48 49 50 52 54 57 59 61 64 67 69 70 73 74 76 78 80 82 84 87 90 93 97 100 104 108 111 115 118 121 124 127 131
30 30 33 37 39 39 36 35 36 35 34 33 32 32 31 31 30 30 30 30 29 30 30 31 31 32 33 34 36 37 37 38 38 38 39 40 41 42 43 44 45 47 48 49 50 52 54 56 58 60 63 65 66 68 68 70 71 74 76 79 82 86 89 92 95 97 100 103 106 110 114 117 120 123
29 31 35 38 38 36 35 35 36 35 34 33 32 31 31 31 30 30 30 29 29 29 30 30 31 31 32 33 35 36 37 37 37 37 38 39 40 40 41 42 43 45 47 48 49 51 52 54 56 57 59 60 62 63 65 67 69 71 73 75 78 81 84 87 89 92 94 96 99 102 105 109 112 115
30 33 36 37 36 34 34 35 35 34 33 32 31 31 31 31 30 29 29 29 29 28 29 30 30 30 31 33 34 35 36 37 36 37 38 39 39 39 40 41 41 43 44 46 48 49 51 52 53 55 56 57 58 60 61 63 66 68 70 72 74 77 79 82 84 87 89 91 93 96 98 101 104 107
32 34 36 35 32 33 34 35 35 34 32 31 31 31 31 30 29 29 29 29 28 28 28 29 30 30 31 32 34 35 35 36 36 36 37 38 38 38 38 39 40 41 42 43 45 47 49 50 51 52 53 55 56 57 58 60 62 64 66 68 71 73 75 77 79 82 84 86 89 91 93 95 97 99
33 35 34 31 30 32 34 34 34 33 32 31 31 31 30 30 29 29 28 28 28 28 28 29 29 29 30 31 33 33 34 35 35 35 36 36 37 37 37 37 38 39 40 41 42 43 45 47 48 50 51 52 53 55 56 57 59 61 63 65 67 69 71 73 75 77 79 81 84 86 88 89 91 93
34 34 31 29 30 32 33 33 32 32 31 30 30 30 30 29 28 28 28 28 27 27 28 28 29 29 29 30 32 32 33 34 33 34 35 35 35 36 36 36 36 37 38 39 40 41 42 43 44 46 47 49 51 52 54 55 57 58 60 62 63 65 67 69 71 73 75 77 79 81 83 85 87 88
Wind_Direction
282 279 275 273 271 269 266 263 259 254 248 241 237 237 235 233 233 233 233 231 229 228 227 225 224 223 222 222 221 220 220 220 221 222 222 221 220 220 220 220 219 218 218 218 218 218 218 218 219 220 220 221 220 220 219 220 221 222 222 221 220 220 220 221 222 223 223 223 224 226 226 227 227 227
282 279 275 271 269 267 265 263 259 255 249 242 237 235 235 234 233 233 233 232 230 228 227 226 225 224 223 223 222 222 221 221 221 221 222 222 220 220 220 220 219 219 218 218 218 219 219 219 219 220 221 221 221 221 221 221 221 222 223 222 222 221 221 221 222 222 223 224 224 226 227 227 228 228
282 280 275 271 268 265 264 261 258 255 251 244 237 235 234 234 233 233 233 233 232 230 228 227 226 225 224 224 223 223 222 221 221 221 222 222 221 220 220 220 220 219 218 218 218 218 219 219 219 220 221 221 222 222 222 222 222 222 223 223 223 222 222 222 222 222 223 224 225 226 227 228 229 230
281 279 276 272 268 265 263 261 257 254 251 247 240 235 234 234 234 234 233 233 233 231 230 228 227 226 226 225 224 224 223 223 222 222 222 222 222 221 220 220 220 220 219 218 218 218 219 219 219 220 220 221 222 223 223 223 223 223 223 223 223 223 223 223 223 224 224 225 226 226 227 228 229 230
280 279 275 271 268 265 262 261 257 253 251 248 243 236 234 234 234 234 234 233 233 232 231 229 228 227 226 226 225 225 225 224 223 223 222 222 222 221 220 219 220 220 220 219 219 219 219 219 219 220 220 221 221 222 223 224 224 224 224 224 223 224 224 225 225 225 225 226 227 227 228 229 230 231
279 277 274 270 267 264 261 260 258 254 250 248 246 240 235 233 234 234 234 234 234 233 232 230 229 228 227 226 226 226 226 225 224 224 224 223 223 222 221 220 219 220 220 220 219 219 219 219 219 220 220 221 221 222 223 224 224 225 225 225 224 224 224 225 226 227 227 227 228 228 229 230 230 231
278 276 273 269 266 263 260 259 258 255 250 247 246 243 238 234 233 234 234 233 233 234 233 231 230 229 227 227 226 226 226 226 225 224 224 224 224 223 222 220 219 219 220 221 220 219 219 219 220 220 220 221 221 222 222 224 224 225 226 226 226 225 225 225 226 227 228 229 229 229 230 231 231 232
277 276 273 269 266 263 260 259 258 256 251 247 245 244 241 237 234 233 233 233 233 233 233 232 231 230 228 227 227 226 226 226 225 225 225 225 225 224 223 221 220 219 220 221 221 220 219 219 220 221 221 221 221 222 222 223 224 225 225 226 227 227 227 226 226 227 229 229 230 231 231 232 232 233
276 275 272 269 266 263 260 259 258 256 253 248 245 244 243 240 237 235 233 233 232 232 232 232 232 231 229 228 227 227 226 226 226 225 225 225 225 225 224 223 221 220 219 220 222 222 221 220 220 220 221 222 222 222 222 223 224 224 225 226 226 227 227 228 228 229 229 230 230 231 232 233 234 234
276 275 272 269 266 264 261 259 257 256 253 249 245 243 243 242 240 238 235 233 232 232 232 232 231 231 231 229 228 227 227 226 226 226 225 225 225 225 225 224 222 220 220 220 221 222 222 221 220 220 221 222 222 223 223 223 224 224 225 225 226 227 227 228 229 230 230 231 231 231 232 233 234 235
275 274 271 269 266 264 261 259 258 257 254 251 246 244 243 242 241 240 239 236 233 231 231 231 231 231 231 231 230 228 227 227 227 227 226 226 225 225 225 225 223 221 220 220 220 222 223 222 221 221 221 221 222 223 224 224 224 224 225 225 226 226 227 228 228 229 230 231 232 233 233 234 235 235
273 273 271 268 266 264 261 259 258 257 256 253 248 245 243 242 241 241 240 239 235 232 230 230 230 230 230 231 231 229 228 227 227 227 227 226 226 225 225 225 224 222 221 220 220 220 222 224 223 222 222 221 222 223 224 224 225 225 225 225 226 226 227 227 228 229 230 231 232 233 234 235 235 236
272 271 269 267 266 264 261 259 258 257 256 254 251 246 244 243 242 240 240 240 238 234 231 229 229 229 229 229 230 230 229 228 227 227 227 227 226 226 225 225 224 223 221 220 220 220 221 223 224 223 222 222 222 222 223 224 225 225 226 226 226 227 227 227 228 229 229 230 231 232 233 234 236 237
271 270 268 266 265 263 261 260 258 257 256 256 253 249 245 244 242 241 240 240 240 238 234 230 228 228 228 229 229 230 230 229 227 227 226 227 227 226 226 225 225 223 222 220 220 220 219 221 223 224 223 223 223 223 223 224 225 225 226 227 227 227 227 228 228 229 229 230 230 231 232 233 235 236
269 269 267 266 264 262 261 260 258 258 257 256 254 251 248 245 243 242 241 240 240 239 237 232 228 227 227 228 228 229 229 229 228 227 226 226 227 226 225 225 225 224 223 221 220 220 219 219 221 223 224 224 223 224 223 224 224 225 226 227 227 228 228 229 229 229 230 230 231 231 232 232 234 235
268 268 266 265 263 262 261 260 259 258 257 256 255 253 250 247 245 243 241 240 240 240 239 236 232 228 226 227 228 229 229 229 228 228 226 225 226 226 225 225 225 225 224 223 221 220 219 219 220 222 224 225 224 224 224 224 224 225 226 226 227 228 228 229 230 230 231 231 231 232 232 232 233 234
267 267 265 264 263 261 260 259 258 257 257 256 255 253 251 249 247 245 243 242 240 239 239 238 235 231 227 226 226 228 229 229 228 228 227 226 226 226 225 224 225 225 225 224 222 221 220 220 219 220 222 224 225 225 225 225 225 225 225 226 227 228 228 229 230 230 231 232 232 232 233 233 233 234
265 265 264 263 262 260 259 259 258 257 256 255 254 253 252 251 249 247 244 243 242 240 239 238 237 234 231 227 226 226 227 228 228 228 228 227 226 226 225 225 225 225 225 225 224 223 221 220 220 220 220 222 224 225 225 225 226 226 226 226 227 227 228 229 229 230 231 232 232 233 233 234 234 235
264 264 263 262 261 260 258 258 257 257 256 255 254 253 252 251 250 248 246 244 243 241 240 239 237 236 234 230 227 226 225 226 227 228 228 228 227 226 226 225 225 225 225 225 225 224 223 222 221 220 220 221 222 224 225 225 225 226 226 226 227 227 228 228 229 230 231 231 232 233 234 234 235 235
262 262 261 260 260 259 258 257 257 257 256 255 254 253 252 252 251 250 247 244 243 242 241 240 238 236 235 233 230 228 226 225 225 227 227 228 228 227 226 225 225 225 225 225 225 225 224 223 222 221 221 221 221 223 225 225 225 226 226 227 227 227 228 228 229 230 230 231 232 233 233 234 235 235
261 261 260 258 258 258 257 256 256 256 256 255 254 253 252 251 251 251 248 246 243 243 242 241 239 237 236 235 233 230 228 226 225 225 226 227 228 228 228 227 225 225 225 225 226 226 225 225 223 222 222 222 222 222 224 225 226 226 226 227 227 228 228 228 229 229 230 231 232 233 233 234 234 235
260 260 259 257 257 256 255 255 255 256 256 255 254 253 252 251 251 251 249 247 244 242 242 242 240 238 236 235 234 232 230 228 226 225 224 225 226 227 228 228 227 225 224 224 225 226 226 226 225 224 223 222 222 222 223 224 226 226 227 227 227 228 229 229 229 230 230 231 232 233 233 234 235 235
258 259 258 257 256 255 254 253 253 254 255 255 254 253 252 251 250 250 250 248 245 243 241 242 242 240 237 236 235 234 232 230 228 226 224 224 225 226 227 228 228 227 225 224 224 225 226 226 226 225 224 224 223 223 223 224 225 226 227 227 228 228 229 229 230 230 231 231 232 232 233 234 235 236
256 257 257 256 255 255 254 252 252 253 254 255 255 254 252 251 249 249 249 248 246 244 241 241 242 241 239 237 236 234 233 232 230 228 226 224 224 225 226 227 228 228 227 225 224 224 225 226 226 226 226 225 224 224 224 224 224 225 227 228 228 228 229 229 230 230 231 232 232 233 233 234 235 236
254 255 255 255 254 254 254 252 251 251 252 253 254 254 253 251 249 249 248 247 246 245 242 241 241 241 240 239 237 235 234 233 232 230 228 226 224 224 225 226 227 227 228 227 226 225 225 226 226 226 227 227 226 226 225 225 225 226 226 228 229 229 230 230 230 231 231 232 233 233 234 234 235 236
252 253 253 253 253 253 253 252 251 251 251 252 253 253 252 251 249 249 248 247 245 245 243 241 240 240 240 240 238 237 235 234 233 231 230 228 226 224 224 225 226 227 227 227 227 227 226 226 226 227 227 227 227 227 226 226 226 226 227 227 228 230 231 231 231 231 231 232 232 233 234 235 235 236
250 250 250 251 251 252 252 251 251 250 251 251 252 253 252 250 248 248 248 246 245 244 244 242 240 239 240 240 239 238 237 235 234 233 231 230 228 226 225 224 225 226 226 227 228 228 228 227 227 227 227 227 227 228 228 227 226 227 227 227 228 229 231 232 232 232 232 232 233 233 234 235 235 236
249 248 249 248 249 250 250 250 250 250 249 250 252 253 253 251 248 247 247 247 245 244 243 242 241 239 239 239 238 237 237 236 235 233 232 231 229 228 226 225 224 225 226 226 227 228 229 229 228 228 227 227 227 228 228 228 227 227 227 228 228 228 230 231 233 233 233 233 233 234 234 235 235 236
247 247 247 247 247 248 248 249 249 249 249 249 250 252 254 253 250 247 246 246 245 244 242 241 240 239 239 238 238 237 236 236 236 235 233 232 231 229 228 226 225 225 225 226 227 228 229 229 229 229 229 228 228 228 228 228 228 228 228 228 228 228 229 230 232 234 234 234 234 235 235 235 236 236
246 246 246 246 246 247 247 247 248 248 248 248 249 250 252 253 253 249 246 245 245 244 243 241 240 239 239 238 238 237 235 235 236 236 234 233 232 231 229 228 227 226 226 226 227 228 229 229 230 230 230 229 229 229 229 229 229 229 229 229 229 229 229 229 230 232 234 235 235 235 236 236 236 237
245 245 246 246 246 246 246 245 246 247 247 248 249 250 252 253 253 252 248 245 244 243 243 241 240 239 239 238 238 237 236 235 234 235 235 234 233 232 231 230 228 227 227 227 227 228 229 230 231 231 231 231 230 230 230 230 230 230 230 230 230 230 230 230 230 230 232 234 235 236 236 236 237 237
243 244 245 246 246 246 246 245 245 245 246 246 247 249 251 253 254 253 251 248 245 243 243 242 241 240 239 238 238 237 237 236 235 234 235 234 234 233 232 231 230 229 228 228 228 228 229 230 231 232 232 233 233 232 232 231 231 231 231 231 231 231 231 231 231 231 231 232 234 235 236 237 237 237
242 242 244 245 246 246 245 245 245 244 245 245 246 246 248 250 252 254 253 251 248 244 243 242 242 241 240 239 238 237 237 236 236 236 235 235 234 234 233 232 231 230 230 230 229 229 230 230 231 232 233 233 234 234 234 234 233 233 232 232 232 232 233 232 232 232 232 232 233 234 235 236 237 238
240 241 243 245 246 246 246 245 245 244 244 245 246 246 246 247 249 251 253 253 251 248 244 242 241 241 241 240 239 238 237 236 236 237 237 236 235 235 234 233 232 231 231 231 231 231 230 231 231 232 233 233 234 234 235 235 235 234 234 233 233 233 233 234 234 234 234 234 233 234 235 236 236 237
238 240 242 244 246 246 246 246 245 245 244 244 245 246 247 247 248 249 251 252 253 251 249 245 243 242 241 241 240 239 238 237 237 237 237 237 237 236 236 235 234 233 232 232 232 233 232 232 232 232 232 233 234 234 235 235 236 235 235 234 234 234 234 234 234 235 235 235 235 235 235 236 236 237
236 238 240 243 245 246 246 246 246 246 245 244 244 245 246 247 248 249 250 251 251 252 251 249 247 244 242 241 241 240 239 238 238 238 238 238 238 238 237 237 236 234 233 232 232 233 234 234 233 233 232 233 233 234 235 235 236 236 236 235 235 235 235 235 235 235 236 236 236 236 236 237 237 237
235 236 238 241 243 244 245 246 247 248 247 245 245 245 246 247 248 248 249 250 251 251 251 250 249 247 245 244 243 241 240 239 238 238 238 239 239 239 239 238 237 236 235 233 233 233 234 234 235 235 233 233 233 233 234 235 236 236 236 236 236 236 235 235 236 236 236 236 237 237 237 237 238 238
234 234 236 239 241 243 244 246 247 248 249 248 247 247 247 247 247 248 249 249 251 252 252 251 250 249 247 245 244 244 243 242 240 239 239 239 240 241 241 241 240 238 236 235 234 234 234 234 235 236 235 234 233 234 234 234 235 236 237 237 237 237 237 237 236 236 237 237 237 238 238 238 238 239
231 231 234 237 239 241 243 245 246 248 249 249 249 249 249 248 248 249 249 249 250 252 253 253 251 250 248 247 245 245 244 244 243 243 242 241 240 241 241 242 243 242 240 237 236 235 235 234 234 235 236 236 236 235 235 236 236 236 237 238 238 238 238 238 237 237 237 237 237 238 238 239 239 239
229 229 232 235 238 241 242 243 244 246 248 249 250 251 251 251 250 250 250 250 250 251 253 253 253 252 250 248 246 245 245 245 244 244 244 244 243 242 242 242 243 244 243 242 240 238 237 236 235 235 236 237 237 237 237 237 237 237 237 237 237 237 238 238 238 238 238 238 238 238 238 239 239 239
226 227 230 234 237 240 241 241 243 245 247 248 250 251 252 252 252 252 252 253 252 252 253 254 254 254 252 250 248 246 245 245 245 245 245 245 245 244 243 243 243 243 243 244 243 242 240 239 237 236 235 236 236 236 237 237 237 237 236 236 236 237 237 238 238 239 239 239 239 239 239 239 239 239
225 226 230 233 236 238 239 240 242 244 245 247 249 250 251 252 252 253 253 254 254 254 255 255 255 255 254 252 249 247 246 245 244 245 245 245 245 245 244 244 243 243 243 242 242 243 242 241 240 239 238 237 236 236 236 236 237 237 237 237 237 237 237 237 238 239 239 239 239 239 239 239 240 240
225 227 230 233 234 235 237 238 241 242 244 246 248 249 251 251 251 252 254 254 255 255 256 256 256 256 255 253 251 249 247 245 245 245 245 246 246 245 245 245 244 244 243 243 242 241 241 241 242 241 241 239 238 237 237 237 237 237 238 238 238 237 238 238 238 238 239 239 240 240 240 241 241 240
226 228 230 232 233 234 236 238 240 241 243 245 247 248 249 250 251 252 253 254 255 256 257 257 257 257 256 254 253 250 248 246 245 245 245 246 246 246 246 245 245 245 244 243 242 241 240 240 240 241 241 241 240 240 239 238 237 237 237 238 238 238 238 238 238 239 239 239 240 240 241 241 241 241
227 229 230 231 233 235 237 238 239 241 243 244 246 248 249 250 251 252 253 254 255 256 257 258 258 257 257 255 253 251 249 247 246 245 246 246 247 247 246 246 246 246 245 244 243 242 241 241 240 240 240 241 241 241 240 240 239 238 238 238 238 239 238 238 238 239 239 239 239 240 240 241 241 242
Height
10077 10076 10075 10073 10069 10068 10067 10067 10068 10070 10072 10073 10074 10075 10078 10081 10083 10085 10089 10094 10100 10107 10114 10122 10129 10136 10144 10150 10159 10168 10176 10186 10197 10208 10220 10235 10249 10260 10270 10285 10300 10311 10322 10333 10344 10354 10364 10373 10383 10392 10402 10413 10424 10434 10444 10453 10461 10467 10474 10482 10490 10498 10509 10517 10523 10531 10539 10546 10550 10553 10556 10561 10565 10569
10065 10065 10065 10064 10061 10059 10058 10058 10058 10059 10061 10063 10065 10066 10068 10071 10073 10075 10078 10082 10088 10094 10101 10109 10118 10125 10131 10138 10146 10154 10162 10172 10182 10192 10204 10218 10233 10246 10257 10270 10285 10297 10308 10319 10328 10339 10349 10359 10368 10377 10387 10398 10409 10419 10429 10438 10445 10451 10458 10466 10474 10483 10493 10501 10508 10517 10525 10530 10535 10540 10545 10550 10554 10558
10054 10054 10054 10053 10052 10050 10049 10049 10049 10048 10049 10053 10055 10057 10058 10060 10062 10064 10068 10071 10076 10082 10089 10096 10104 10111 10118 10126 10132 10140 10148 10157 10166 10177 10189 10202 10216 10231 10244 10257 10269 10281 10294 10304 10312 10322 10334 10344 10354 10363 10372 10383 10394 10403 10412 10421 10427 10434 10442 10450 10459 10469 10478 10486 10495 10504 10511 10516 10520 10525 10532 10537 10542 10546
10043 10044 10043 10043 10042 10041 10040 10040 10040 10039 10039 10041 10045 10048 10049 10051 10052 10054 10058 10061 10065 10071 10078 10084 10091 10098 10106 10114 10120 10126 10134 10143 10153 10164 10175 10187 10200 10215 10230 10244 10255 10267 10279 10290 10298 10306 10317 10328 10339 10348 10357 10367 10378 10386 10394 10403 10409 10417 10427 10436 10446 10455 10463 10472 10481 10490 10497 10501 10506 10512 10518 10524 10529 10534
10033 10034 10033 10033 10032 10032 10031 10030 10030 10030 10029 10030 10033 10038 10040 10042 10043 10044 10048 10051 10054 10059 10066 10072 10078 10086 10093 10101 10108 10114 10121 10131 10141 10150 10160 10171 10184 10199 10215 10230 10242 10252 10264 10276 10284 10292 10302 10312 10322 10332 10340 10351 10362 10370 10377 10384 10392 10402 10412 10422 10431 10440 10450 10460 10467 10474 10482 10487 10491 10498 10506 10512 10518 10523
10023 10024 10024 10023 10023 10023 10022 10021 10020 10021 10021 10020 10022 10026 10030 10032 10034 10035 10038 10041 10043 10048 10054 10060 10066 10073 10080 10087 10095 10102 10109 10117 10127 10136 10146 10157 10168 10182 10198 10213 10227 10238 10249 10260 10269 10278 10288 10298 10307 10316 10325 10335 10345 10353 10360 10366 10375 10388 10398 10407 10416 10426 10437 10447 10453 10460 10467 10472 10477 10484 10492 10498 10503 10509
10013 10014 10014 10014 10014 10014 10013 10012 10011 10011 10012 10012 10012 10014 10018 10021 10024 10026 10028 10031 10032 10036 10042 10048 10054 10061 10068 10075 10082 10089 10096 10104 10113 10122 10131 10141 10153 10166 10181 10197 10212 10224 10233 10243 10253 10263 10273 10284 10294 10301 10309 10318 10328 10336 10343 10350 10360 10373 10383 10391 10401 10412 10423 10432 10439 10446 10452 10458 10464 10470 10477 10482 10487 10494
10003 10004 10004 10003 10004 10004 10004 10002 10002 10002 10003 10003 10003 10004 10006 10010 10013 10016 10017 10020 10022 10025 10030 10036 10042 10048 10055 10062 10069 10076 10083 10091 10099 10108 10116 10125 10137 10150 10164 10180 10195 10208 10218 10227 10237 10248 10258 10268 10279 10288 10295 10303 10311 10319 10327 10335 10345 10357 10366 10374 10385 10396 10406 10416 10425 10432 10439 10446 10452 10457 10462 10467 10473 10478
9992 9994 9993 9994 9994 9994 9994 9993 9993 9993 9993 9994 9994 9995 9996 9998 10001 10005 10008 10010 10012 10015 10019 10024 10029 10035 10041 10049 10056 10062 10070 10077 10085 10094 10102 10110 10122 10133 10145 10161 10177 10191 10202 10212 10221 10231 10242 10252 10263 10272 10281 10289 10296 10304 10312 10320 10330 10340 10349 10358 10370 10381 10390 10400 10408 10416 10423 10430 10437 10442 10447 10452 10458 10463
9982 9984 9984 9984 9984 9985 9985 9984 9984 9984 9984 9984 9985 9986 9986 9988 9990 9994 9997 10000 10002 10005 10008 10013 10017 10023 10028 10036 10043 10050 10057 10064 10072 10080 10088 10096 10106 10116 10127 10142 10159 10173 10185 10197 10206 10214 10224 10236 10247 10256 10265 10273 10281 10289 10297 10305 10314 10324 10333 10342 10354 10365 10374 10383 10390 10398 10405 10411 10419 10426 10432 10437 10442 10448
9972 9974 9974 9974 9975 9975 9975 9975 9975 9975 9975 9975 9976 9976 9977 9979 9980 9983 9986 9989 9992 9995 9998 10002 10007 10012 10017 10023 10030 10038 10045 10052 10059 10066 10074 10082 10090 10099 10109 10122 10139 10155 10169 10181 10191 10198 10206 10218 10230 10240 10249 10257 10266 10275 10283 10291 10299 10308 10317 10328 10338 10348 10357 10365 10372 10379 10387 10394 10401 10408 10415 10421 10426 10432
9963 9964 9964 9964 9965 9966 9966 9966 9966 9966 9965 9966 9966 9967 9968 9970 9971 9973 9975 9977 9981 9985 9988 9992 9997 10002 10007 10011 10016 10024 10032 10040 10046 10052 10059 10068 10077 10085 10096 10107 10122 10138 10152 10163 10175 10183 10190 10198 10211 10223 10233 10241 10250 10259 10268 10277 10286 10294 10303 10313 10323 10333 10341 10349 10355 10361 10370 10378 10384 10391 10399 10405 10409 10414
9954 9955 9956 9955 9956 9956 9957 9957 9957 9957 9956 9956 9957 9958 9959 9961 9962 9963 9965 9966 9969 9974 9978 9982 9987 9992 9997 10001 10004 10010 10018 10025 10032 10039 10048 10057 10065 10072 10083 10094 10105 10119 10132 10143 10154 10165 10173 10180 10190 10203 10215 10225 10234 10242 10251 10261 10271 10280 10289 10299 10308 10317 10326 10333 10338 10344 10352 10360 10367 10375 10382 10388 10393 10398
9945 9946 9947 9947 9947 9947 9947 9948 9948 9948 9948 9948 9948 9949 9950 9951 9953 9954 9956 9957 9959 9963 9967 9972 9977 9981 9986 9991 9994 9999 10004 10012 10019 10028 10037 10044 10048 10057 10069 10080 10089 10098 10110 10121 10131 10143 10154 10162 10169 10181 10195 10207 10216 10225 10235 10246 10256 10266 10275 10283 10293 10302 10310 10317 10323 10328 10335 10343 10351 10359 10366 10372 10377 10382
9937 9938 9939 9938 9938 9939 9939 9939 9939 9939 9939 9939 9939 9940 9941 9942 9944 9945 9947 9948 9950 9952 9956 9960 9966 9971 9975 9980 9983 9987 9993 9999 10006 10014 10023 10028 10033 10043 10055 10064 10071 10077 10086 10097 10108 10120 10132 10143 10151 10161 10174 10187 10198 10208 10220 10231 10240 10249 10259 10268 10277 10287 10295 10302 10308 10314 10320 10328 10335 10343 10351 10357 10363 10367
9928 9929 9930 9930 9930 9930 9930 9930 9931 9931 9931 9931 9931 9931 9932 9933 9935 9937 9938 9940 9941 9943 9945 9949 9954 9960 9965 9969 9972 9976 9982 9989 9994 10001 10008 10015 10020 10028 10039 10046 10050 10056 10065 10076 10088 10101 10114 10126 10137 10145 10154 10167 10180 10193 10205 10215 10224 10233 10243 10251 10260 10270 10278 10286 10293 10299 10305 10312 10320 10327 10335 10342 10348 10352
9921 9921 9922 9922 9922 9923 9922 9922 9923 9923 9923 9923 9923 9923 9924 9925 9926 9928 9929 9931 9932 9934 9936 9939 9944 9949 9955 9959 9962 9966 9972 9978 9984 9989 9996 10002 10008 10016 10024 10029 10031 10038 10049 10060 10073 10087 10100 10111 10122 10132 10140 10150 10162 10176 10189 10199 10208 10217 10226 10234 10242 10251 10260 10268 10276 10283 10289 10296 10304 10311 10319 10327 10333 10338
9913 9914 9915 9915 9915 9915 9915 9915 9915 9916 9916 9916 9916 9915 9916 9917 9918 9919 9921 9922 9924 9926 9928 9930 9934 9938 9942 9948 9953 9957 9961 9967 9973 9978 9983 9990 9997 10005 10011 10015 10020 10027 10038 10050 10062 10075 10086 10096 10106 10116 10125 10132 10142 10154 10167 10178 10189 10199 10208 10216 10224 10233 10242 10250 10258 10266 10272 10279 10286 10294 10302 10311 10318 10323
9906 9907 9907 9907 9907 9908 9908 9908 9908 9908 9908 9908 9908 9908 9908 9909 9910 9911 9912 9914 9915 9917 9919 9922 9924 9927 9931 9937 9942 9947 9951 9956 9961 9966 9972 9978 9984 9990 9997 10003 10010 10018 10027 10037 10048 10060 10069 10077 10087 10098 10107 10113 10120 10130 10142 10154 10166 10178 10188 10197 10206 10215 10223 10232 10240 10248 10255 10261 10268 10276 10284 10293 10301 10307
9898 9900 9900 9900 9900 9900 9901 9901 9901 9901 9901 9901 9901 9901 9901 9902 9902 9903 9904 9906 9907 9909 9911 9913 9915 9918 9922 9926 9931 9936 9941 9946 9951 9955 9961 9966 9972 9978 9984 9990 9998 10006 10015 10024 10033 10043 10051 10057 10069 10082 10089 10095 10105 10113 10122 10132 10144 10156 10167 10177 10187 10196 10205 10214 10221 10229 10236 10243 10250 10257 10265 10274 10282 10289
9890 9892 9893 9894 9893 9893 9894 9894 9894 9894 9894 9895 9895 9894 9894 9895 9895 9895 9896 9898 9900 9901 9903 9905 9907 9910 9913 9916 9920 9926 9931 9936 9941 9945 9950 9955 9961 9966 9972 9978 9986 9995 10004 10013 10022 10031 10037 10043 10055 10067 10072 10080 10091 10099 10105 10113 10124 10135 10146 10157 10167 10177 10186 10195 10203 10210 10218 10225 10232 10240 10247 10255 10263 10270
9882 9884 9886 9887 9887 9887 9887 9888 9888 9888 9887 9888 9888 9888 9888 9888 9888 9888 9889 9891 9892 9894 9896 9897 9899 9902 9905 9907 9911 9916 9921 9926 9930 9935 9940 9945 9950 9955 9959 9966 9975 9984 9994 10003 10011 10018 10024 10029 10039 10050 10057 10065 10075 10083 10090 10098 10105 10114 10126 10137 10147 10158 10167 10177 10185 10193 10200 10208 10215 10222 10230 10237 10244 10250
9874 9876 9878 9879 9880 9880 9881 9881 9882 9881 9881 9881 9882 9882 9882 9882 9882 9882 9882 9884 9885 9887 9888 9889 9891 9894 9896 9899 9902 9907 9912 9916 9920 9925 9930 9935 9940 9945 9949 9955 9963 9972 9982 9990 9997 10003 10007 10011 10021 10032 10039 10048 10058 10066 10075 10083 10090 10097 10107 10118 10128 10138 10147 10157 10166 10175 10184 10192 10199 10206 10213 10219 10225 10232
9866 9868 9870 9872 9873 9873 9874 9875 9875 9876 9875 9875 9875 9876 9876 9877 9877 9876 9876 9877 9878 9879 9882 9883 9884 9886 9888 9891 9894 9898 9902 9907 9911 9916 9921 9926 9931 9936 9941 9946 9952 9959 9968 9976 9984 9989 9991 9995 10004 10015 10022 10031 10042 10050 10059 10069 10077 10083 10090 10098 10108 10118 10127 10137 10147 10157 10166 10174 10182 10189 10196 10202 10208 10215
9859 9861 9863 9864 9866 9866 9867 9868 9869 9870 9870 9869 9869 9869 9870 9871 9871 9870 9870 9871 9872 9873 9875 9876 9878 9879 9881 9883 9886 9889 9894 9898 9902 9907 9912 9917 9922 9927 9932 9937 9942 9947 9955 9962 9969 9974 9977 9982 9992 10002 10010 10019 10028 10035 10044 10055 10063 10070 10077 10083 10090 10099 10108 10117 10127 10137 10147 10155 10164 10172 10179 10186 10192 10199
9852 9854 9856 9857 9858 9860 9860 9862 9863 9863 9864 9864 9863 9864 9864 9865 9866 9865 9865 9865 9866 9866 9868 9870 9871 9873 9874 9876 9878 9881 9885 9889 9893 9898 9903 9908 9913 9918 9923 9928 9933 9939 9944 9950 9955 9959 9964 9971 9981 9990 9997 10006 10012 10019 10029 10040 10049 10057 10065 10071 10076 10082 10090 10099 10108 10117 10126 10136 10145 10153 10160 10168 10175 10182
9846 9847 9849 9850 9852 9853 9854 9855 9856 9857 9858 9858 9858 9858 9858 9860 9860 9860 9859 9860 9860 9861 9862 9863 9865 9867 9868 9869 9872 9874 9877 9881 9885 9889 9894 9899 9903 9908 9914 9919 9924 9929 9934 9939 9944 9948 9953 9959 9967 9975 9982 9990 9996 10003 10013 10025 10034 10041 10048 10056 10062 10068 10073 10080 10089 10098 10107 10116 10124 10132 10140 10148 10156 10164
9839 9841 9842 9844 9846 9847 9848 9849 9850 9851 9852 9852 9852 9852 9852 9854 9855 9855 9854 9854 9855 9855 9856 9857 9859 9861 9862 9863 9865 9868 9870 9873 9876 9880 9885 9889 9894 9899 9904 9909 9914 9919 9923 9928 9933 9937 9942 9948 9954 9961 9967 9973 9980 9987 9997 10007 10015 10021 10029 10037 10044 10052 10059 10064 10070 10078 10088 10097 10105 10113 10121 10129 10137 10145
9832 9834 9836 9838 9839 9841 9842 9843 9844 9845 9846 9846 9847 9846 9847 9847 9849 9850 9849 9849 9849 9850 9850 9851 9852 9854 9856 9857 9859 9862 9864 9866 9869 9872 9876 9881 9885 9889 9895 9900 9904 9909 9913 9918 9922 9926 9931 9936 9942 9948 9955 9961 9967 9973 9980 9988 9995 10002 10011 10019 10025 10033 10042 10049 10054 10059 10068 10077 10086 10094 10102 10109 10117 10125
9825 9827 9829 9831 9833 9834 9836 9837 9838 9839 9840 9841 9841 9841 9841 9842 9842 9844 9844 9844 9844 9844 9845 9846 9847 9848 9849 9851 9853 9855 9858 9860 9862 9865 9868 9872 9876 9880 9885 9890 9894 9899 9904 9908 9912 9915 9919 9924 9929 9936 9941 9948 9955 9960 9965 9971 9979 9986 9994 10001 10009 10016 10025 10033 10039 10045 10050 10058 10067 10075 10083 10091 10098 10106
9818 9821 9823 9824 9826 9828 9830 9831 9833 9834 9834 9835 9835 9836 9836 9836 9837 9838 9839 9839 9839 9839 9839 9840 9841 9842 9843 9845 9847 9849 9851 9854 9856 9858 9861 9865 9868 9872 9876 9880 9885 9890 9894 9898 9902 9905 9909 9913 9918 9924 9929 9934 9941 9947 9952 9959 9966 9974 9981 9987 9994 10000 10008 10016 10024 10030 10035 10041 10048 10056 10064 10073 10081 10088
9812 9815 9816 9817 9820 9822 9824 9825 9827 9828 9829 9830 9830 9831 9831 9831 9831 9832 9833 9833 9834 9834 9835 9835 9835 9836 9837 9839 9841 9843 9845 9847 9850 9852 9854 9857 9861 9864 9867 9872 9876 9881 9885 9888 9892 9896 9899 9903 9908 9913 9918 9923 9929 9935 9941 9947 9954 9961 9969 9975 9981 9987 9993 10001 10007 10013 10020 10025 10031 10037 10045 10053 10061 10069
9806 9808 9809 9811 9814 9816 9818 9819 9821 9823 9824 9825 9825 9826 9826 9826 9826 9826 9827 9828 9828 9829 9830 9830 9830 9831 9832 9833 9835 9837 9839 9841 9843 9845 9848 9851 9853 9856 9859 9863 9868 9872 9875 9879 9883 9887 9890 9894 9899 9903 9907 9913 9918 9924 9930 9935 9941 9948 9954 9961 9968 9974 9980 9986 9991 9996 10002 10008 10014 10020 10026 10033 10041 10049
9799 9801 9802 9805 9808 9810 9812 9814 9816 9817 9819 9820 9820 9821 9821 9822 9822 9822 9822 9822 9823 9823 9824 9825 9825 9826 9826 9828 9829 9831 9833 9835 9837 9838 9841 9843 9846 9848 9851 9855 9860 9864 9867 9870 9873 9877 9880 9885 9889 9893 9897 9902 9907 9912 9916 9921 9927 9933 9939 9946 9953 9959 9965 9971 9976 9981 9986 9991 9997 10004 10009 10015 10023 10030
9792 9794 9797 9800 9803 9804 9806 9808 9810 9812 9813 9814 9815 9815 9816 9817 9817 9817 9817 9817 9817 9818 9819 9819 9820 9821 9821 9822 9823 9825 9826 9829 9830 9832 9834 9836 9838 9841 9844 9847 9851 9855 9859 9862 9864 9867 9870 9874 9878 9883 9887 9891 9896 9900 9904 9907 9911 9917 9924 9931 9938 9944 9949 9955 9960 9965 9970 9975 9981 9988 9994 9999 10005 10012
9786 9789 9792 9795 9797 9799 9800 9801 9803 9806 9808 9809 9810 9810 9811 9811 9812 9812 9812 9812 9812 9812 9813 9813 9814 9815 9816 9816 9817 9819 9820 9822 9824 9826 9827 9829 9831 9834 9836 9839 9843 9847 9851 9854 9856 9858 9861 9864 9867 9871 9875 9880 9884 9888 9891 9894 9898 9903 9910 9917 9923 9929 9935 9941 9946 9950 9955 9960 9966 9972 9978 9984 9990 9996
9780 9784 9787 9790 9792 9793 9794 9796 9798 9800 9801 9803 9804 9805 9806 9806 9807 9807 9807 9807 9807 9807 9808 9808 9808 9809 9809 9810 9811 9812 9814 9816 9818 9819 9821 9822 9824 9826 9829 9832 9835 9838 9842 9846 9848 9850 9852 9854 9857 9859 9863 9868 9872 9875 9878 9881 9886 9891 9897 9903 9908 9914 9920 9925 9931 9935 9940 9945 9950 9956 9962 9969 9974 9981
9775 9779 9782 9785 9786 9787 9788 9790 9792 9794 9796 9797 9799 9800 9801 9801 9802 9802 9802 9802 9802 9802 9802 9803 9803 9803 9804 9804 9805 9806 9808 9809 9811 9813 9814 9816 9817 9819 9822 9824 9827 9830 9834 9837 9839 9841 9843 9846 9848 9849 9852 9856 9860 9862 9865 9870 9875 9880 9885 9890 9896 9902 9907 9912 9916 9921 9925 9929 9935 9941 9946 9952 9958 9965
9770 9774 9778 9780 9781 9782 9784 9786 9788 9789 9790 9792 9793 9794 9795 9796 9796 9797 9797 9797 9797 9797 9797 9797 9797 9798 9798 9799 9800 9800 9802 9803 9804 9806 9808 9809 9811 9813 9815 9817 9819 9821 9825 9828 9831 9833 9835 9838 9840 9841 9843 9846 9849 9852 9857 9863 9868 9872 9876 9881 9886 9890 9893 9896 9900 9904 9909 9914 9920 9925 9930 9936 9942 9948
9766 9770 9773 9774 9775 9777 9779 9782 9783 9784 9786 9787 9788 9789 9789 9790 9791 9792 9792 9792 9792 9792 9792 9792 9792 9792 9793 9794 9794 9795 9796 9797 9798 9799 9801 9802 9804 9806 9808 9810 9812 9813 9816 9819 9821 9824 9826 9828 9831 9833 9835 9838 9841 9845 9850 9854 9858 9862 9865 9869 9872 9874 9877 9881 9885 9889 9895 9901 9906 9910 9915 9920 9925 9930
9762 9766 9767 9768 9770 9772 9775 9777 9778 9780 9781 9782 9783 9784 9784 9785 9786 9786 9786 9787 9787 9787 9786 9786 9787 9787 9788 9788 9788 9789 9790 9791 9792 9793 9794 9796 9797 9799 9801 9803 9805 9806 9808 9810 9812 9815 9817 9820 9822 9824 9827 9829 9832 9836 9839 9842 9845 9848 9852 9855 9858 9861 9865 9869 9872 9877 9882 9887 9892 9896 9900 9905 9909 9915
9757 9760 9762 9763 9766 9768 9770 9772 9773 9775 9776 9777 9778 9779 9779 9780 9781 9781 9781 9781 9782 9781 9781 9781 9781 9782 9782 9782 9782 9783 9784 9785 9786 9787 9788 9789 9791 9792 9794 9796 9798 9799 9801 9803 9805 9807 9808 9811 9813 9815 9818 9821 9824 9827 9829 9832 9835 9838 9841 9844 9847 9850 9854 9857 9861 9865 9869 9873 9877 9881 9885 9890 9894 9900
9751 9754 9756 9758 9762 9764 9766 9767 9769 9770 9771 9773 9774 9774 9775 9775 9776 9776 9776 9776 9776 9776 9776 9776 9776 9776 9776 9776 9777 9777 9778 9779 9780 9781 9782 9783 9784 9786 9787 9789 9790 9792 9794 9796 9797 9799 9801 9802 9804 9807 9809 9812 9815 9817 9820 9823 9826 9829 9831 9834 9837 9840 9843 9847 9850 9854 9857 9861 9864 9868 9872 9877 9881 9886
9745 9748 9751 9754 9757 9759 9761 9762 9764 9765 9767 9768 9769 9769 9770 9770 9771 9771 9772 9772 9772 9772 9771 9771 9771 9771 9771 9771 9771 9772 9772 9773 9775 9775 9776 9777 9778 9779 9781 9782 9784 9785 9787 9788 9790 9792 9794 9795 9797 9799 9801 9803 9806 9808 9811 9814 9817 9819 9822 9824 9827 9830 9833 9836 9840 9843 9846 9850 9853 9857 9860 9865 9869 9873
9740 9743 9746 9750 9752 9754 9756 9757 9759 9760 9762 9763 9764 9765 9765 9766 9766 9766 9767 9767 9767 9767 9767 9766 9766 9766 9766 9766 9766 9767 9767 9768 9769 9770 9770 9771 9772 9773 9775 9776 9777 9779 9780 9782 9783 9785 9786 9788 9790 9791 9793 9795 9797 9800 9802 9805 9807 9810 9812 9815 9817 9820 9824 9826 9829 9832 9836 9839 9842 9846 9849 9853 9856 9860